TimeMDT,TemperatureF,Dew PointF,Humidity,Sea Level PressureIn,VisibilityMPH,Wind Direction,Wind SpeedMPH,Gust SpeedMPH,PrecipitationIn,Events,Conditions,WindDirDegrees,DateUTC
12:53 AM,63.0,39.0,41,29.78,6.0,Calm,Calm,-,N/A,,Haze,0,2012-09-01 06:53:00
1:53 AM,62.1,39.9,44,29.78,6.0,Calm,Calm,-,N/A,,Haze,0,2012-09-01 07:53:00
2:53 AM,61.0,39.0,44,29.78,6.0,Variable,3.5,-,N/A,,Haze,0,2012-09-01 08:53:00
3:53 AM,57.9,39.9,51,29.79,6.0,Calm,Calm,-,N/A,,Haze,0,2012-09-01 09:53:00
4:53 AM,55.9,37.9,51,29.80,7.0,Calm,Calm,-,N/A,,Clear,0,2012-09-01 10:53:00
5:53 AM,55.9,37.9,51,29.82,7.0,North,5.8,-,N/A,,Clear,350,2012-09-01 11:53:00
6:53 AM,52.0,39.9,63,29.84,6.0,ENE,4.6,-,N/A,,Haze,60,2012-09-01 12:53:00
7:53 AM,55.0,39.0,55,29.87,6.0,Calm,Calm,-,N/A,,Haze,0,2012-09-01 13:53:00
8:53 AM,55.9,42.1,60,29.89,5.0,SSE,3.5,-,N/A,,Haze,160,2012-09-01 14:53:00
9:53 AM,66.0,39.0,37,29.88,7.0,Calm,Calm,-,N/A,,Clear,0,2012-09-01 15:53:00
10:53 AM,72.0,34.0,25,29.88,10.0,NNW,15.0,-,N/A,,Clear,330,2012-09-01 16:53:00
11:53 AM,75.0,33.1,22,29.90,10.0,NW,11.5,19.6,N/A,,Clear,320,2012-09-01 17:53:00
12:53 PM,75.9,27.0,16,29.90,10.0,West,16.1,25.3,N/A,,Clear,270,2012-09-01 18:53:00
1:53 PM,75.9,28.0,17,29.90,10.0,WNW,13.8,21.9,N/A,,Clear,290,2012-09-01 19:53:00
2:53 PM,79.0,21.0,12,29.89,10.0,WNW,15.0,24.2,N/A,,Partly Cloudy,300,2012-09-01 20:53:00
3:53 PM,78.8,17.6,10,29.94,10.0,West,23.0,32.2,N/A,,Clear,280,2012-09-01 21:53:00
4:53 PM,79.0,18.0,10,29.89,10.0,WNW,18.4,26.5,N/A,,Clear,300,2012-09-01 22:53:00
5:53 PM,77.0,12.0,8,29.91,10.0,NW,24.2,28.8,N/A,,Clear,310,2012-09-01 23:53:00
6:53 PM,75.0,12.0,9,29.93,10.0,WNW,12.7,-,N/A,,Clear,290,2012-09-02 00:53:00
7:53 PM,69.1,17.1,14,29.96,10.0,West,11.5,-,N/A,,Clear,280,2012-09-02 01:53:00
8:53 PM,61.0,16.0,17,29.99,10.0,West,6.9,-,N/A,,Clear,270,2012-09-02 02:53:00
9:53 PM,59.0,17.1,20,30.00,10.0,North,5.8,-,N/A,,Clear,360,2012-09-02 03:53:00
10:53 PM,54.0,21.0,28,30.02,10.0,Calm,Calm,-,N/A,,Clear,0,2012-09-02 04:53:00
11:53 PM,53.1,21.0,29,30.04,10.0,Calm,Calm,-,N/A,,Clear,0,2012-09-02 05:53:00